Simultaneous Nadir Overpasses (SNOs) Predictions

Prediction of SNOs between GOES-17 and METOP-C Satellite Orbit:

Table of predicted SNOs for the next 14.0 days since TLE Epoch: 10/10/2025
Index Date Time (GOES-17) GOES-17 Lat,Lon METOP-C Lat,Lon Distance(km) Time Diff (sec)
1 10/11/2025 15:11:15 0.25, -89.53 -0.69, -85.39 472.49 80
2 10/13/2025 03:32:57 -0.27, -89.46 -0.36, -89.99 59.29 80
3 10/15/2025 15:31:11 0.28, -89.53 0.29, -89.56 2.75 80
4 10/18/2025 03:26:53 -0.29, -89.48 -0.21, -89.16 36.06 80
5 10/19/2025 15:48:26 0.29, -89.56 1.25, -93.72 475.17 80
6 10/20/2025 15:25:07 0.29, -89.57 0.12, -88.73 94.64 80
7 10/22/2025 03:46:49 -0.30, -89.52 -1.16, -93.33 435.00 80
8 10/23/2025 03:23:30 -0.30, -89.52 -0.03, -88.34 134.77 80
9 10/24/2025 15:42:22 0.31, -89.61 1.05, -92.90 376.25 80
